Location: Newark
(43.0000°N, 1.6781°W)
Time: 10:43:28
(UTC+00:00)

Explorer 7 - Pass Details

Date: 23 April 2021
Orbit: 484 x 677 km, 50.3° (Epoch: 07 May)

Event Time Altitude Azimuth Distance (km) Brightness Sun altitude
Rises 17:25:28 0° 196° (SSW) 2,552 10.4 15.9°
Reaches altitude 10° 17:28:05 10° 177° (S) 1,695 9.3 15.4°
Maximum altitude 17:30:46 18° 133° (SE) 1,290 8.4 14.9°
Drops below altitude 10° 17:33:31 10° 88° (E) 1,761 8.8 14.4°
Sets 17:36:19 0° 70° (ENE) 2,693 9.8 13.9°
